Location: Unspecified
(0.0000°N, 0.0000°E)
Time: 07:10:42
(UTC+00:00)

OBJECT H - Visible Passes

Search period start: 09 June 2023 00:00
Search period end: 19 June 2023 00:00
Orbit: 577 x 593 km, 97.4° (Epoch: 09 June)

Date Brightness Start Highest point End Pass type
(mag) Time Alt. Az. Time Alt. Az. Time Alt. Az.
09 Jun ? 18:59:45 10° N 19:03:43 49° WNW 19:07:42 10° SSW visible
10 Jun ? 19:06:21 10° N 19:10:11 38° W 19:14:01 10° SSW visible
11 Jun ? 19:13:01 10° NNW 19:16:38 30° WNW 19:20:16 10° SW visible
12 Jun ? 19:19:44 10° NNW 19:23:05 24° W 19:26:27 10° SW visible
13 Jun ? 19:26:32 10° NNW 19:29:31 20° WNW 19:32:32 10° SW visible
14 Jun ? 19:33:27 10° NW 19:35:57 16° WNW 19:38:28 10° WSW visible
15 Jun ? 19:40:35 10° NW 19:42:23 13° WNW 19:44:11 10° WSW visible
18 Jun ? 18:22:33 10° NNE 18:26:27 44° E 18:30:22 10° S visible
